Location: ?????
(37.7324°N, 23.9257°E)
Time: 20:26:25
(UTC+00:00)

Cosmos 1812 - Pass Details

Date: 29 November 2020
Orbit: 517 x 520 km, 82.5° (Epoch: 19 January)

Event Time Altitude Azimuth Distance (km) Brightness Sun altitude
Rises 04:09:03 0° 354° (N) 2,646 6.1 -13.7°
Reaches altitude 10° 04:11:12 10° 356° (N) 1,754 5.2 -13.3°
Maximum altitude 04:15:02 78° 82° (E) 534 2.8 -12.5°
Drops below altitude 10° 04:18:52 10° 170° (S) 1,742 5.8 -11.8°
Sets 04:20:59 0° 171° (S) 2,625 6.7 -11.4°
